Weather History for KMLB - May, 2013

Change the Weather History Date:

Saturday, May 4, 2013

  Actual Average Record
Temperature  
Mean Temperature 75 °F 74 °F  
Max Temperature 83 °F 84 °F 94 °F (1984)
Min Temperature 67 °F 64 °F 51 °F (1999)
Degree Days  
Heating Degree Days 0 0  
Month to date heating degree days 0 0  
Since 1 July heating degree days 463 576  
Cooling Degree Days 10 9  
Month to date cooling degree days 35 35  
Year to date cooling degree days 569 410  
Growing Degree Days 25 (Base 50)    
Moisture  
Dew Point 66 °F    
Average Humidity 74    
Maximum Humidity 93    
Minimum Humidity 55    
Precipitation  
Precipitation T in 0.07 in 2.28 in (1978)
Month to date precipitation 1.58 0.25  
Year to date precipitation 10.52 10.46  
Sea Level Pressure  
Sea Level Pressure 29.72 in    
Wind  
Wind Speed 8 mph (SSW)    
Max Wind Speed 15 mph    
Max Gust Speed 21 mph    
Visibility 10 miles    
Events Rain    
T = Trace of Precipitation, MM = Missing Value Source: NWS Daily Summary

Daily Weather History Graph

Daily Weather History Graph

Search for Another Location

Airport or City:

Trip Planner

Search our weather history database for the weather conditions in past years. The results will help you decide how hot, cold, wet, or windy it might be!

Date:

Astronomy

May. 04, 2013 Rise Set
Actual Time 6:39 AM EDT 7:59 PM EDT
Civil Twilight 6:14 AM EDT 8:24 PM EDT
Nautical Twilight 5:45 AM EDT 8:53 PM EDT
Astronomical Twilight 5:14 AM EDT 9:24 PM EDT
Moon 3:10 AM EDT (5/4) 3:19 PM EDT (5/4)
Length of Visible Light 14h 09m
Length of Day
13h 19m
Waning Crescent, 27% of the Moon is Illuminated
May 4
Waning Crescent
May 9
New
May 18
First Quarter
May 25
Full
May 31
Last Quarter

Hourly Weather History & Observations

Time (EDT) Temp. Heat Index Dew Point Humidity Pressure Visibility Wind Dir Wind Speed Gust Speed Precip Events Conditions
12:53 AM 71.1 °F - 66.0 °F 84% 29.72 in 10.0 mi SSE 6.9 mph - N/A   Overcast
1:02 AM 71.6 °F - 66.2 °F 83% 29.72 in 10.0 mi SE 6.9 mph - N/A   Overcast
1:53 AM 71.1 °F - 66.0 °F 84% 29.71 in 10.0 mi SSE 9.2 mph - N/A   Overcast
2:13 AM 71.6 °F - 66.2 °F 83% 29.70 in 10.0 mi SE 8.1 mph - N/A   Scattered Clouds
2:53 AM 70.0 °F - 66.0 °F 87% 29.69 in 10.0 mi South 8.1 mph - N/A   Scattered Clouds
3:16 AM 69.8 °F - 66.2 °F 88% 29.68 in 10.0 mi SSW 6.9 mph - N/A   Mostly Cloudy
3:40 AM 69.8 °F - 66.2 °F 88% 29.69 in 10.0 mi SSW 10.4 mph - N/A   Mostly Cloudy
3:50 AM 69.8 °F - 66.2 °F 88% 29.69 in 10.0 mi SSW 9.2 mph - N/A   Scattered Clouds
3:53 AM 69.1 °F - 66.0 °F 90% 29.69 in 10.0 mi SSW 9.2 mph - N/A   Scattered Clouds
4:13 AM 69.8 °F - 66.2 °F 88% 29.69 in 10.0 mi SSW 5.8 mph - N/A   Mostly Cloudy
4:38 AM 69.8 °F - 66.2 °F 88% 29.69 in 10.0 mi SSW 8.1 mph - N/A   Overcast
4:53 AM 69.1 °F - 64.9 °F 87% 29.69 in 10.0 mi South 8.1 mph - N/A   Overcast
5:01 AM 68.0 °F - 64.4 °F 88% 29.69 in 10.0 mi South 5.8 mph - N/A   Mostly Cloudy
5:12 AM 68.0 °F - 64.4 °F 88% 29.69 in 10.0 mi South 8.1 mph - N/A   Mostly Cloudy
5:53 AM 68.0 °F - 66.0 °F 93% 29.70 in 10.0 mi South 4.6 mph - N/A   Mostly Cloudy
6:53 AM 68.0 °F - 64.9 °F 90% 29.72 in 10.0 mi South 5.8 mph - N/A   Overcast
7:53 AM 69.1 °F - 64.9 °F 87% 29.73 in 10.0 mi South 4.6 mph - N/A   Clear
8:41 AM 71.6 °F - 66.2 °F 83% 29.73 in 10.0 mi SSW 8.1 mph - N/A   Mostly Cloudy
8:53 AM 72.0 °F - 66.0 °F 81% 29.73 in 10.0 mi SW 9.2 mph - N/A   Mostly Cloudy
9:53 AM 73.9 °F - 66.0 °F 76% 29.73 in 10.0 mi SW 9.2 mph - N/A   Mostly Cloudy
10:48 AM 75.2 °F - 66.2 °F 73% 29.75 in 10.0 mi WSW 8.1 mph - N/A   Overcast
10:53 AM 75.0 °F - 66.0 °F 73% 29.75 in 10.0 mi WSW 11.5 mph - N/A   Overcast
11:29 AM 75.2 °F - 64.4 °F 69% 29.76 in 10.0 mi WSW 6.9 mph - N/A   Overcast
11:53 AM 73.9 °F - 64.9 °F 73% 29.75 in 10.0 mi SW 6.9 mph - 0.00 in Rain Light Rain
12:00 PM 75.2 °F - 64.4 °F 69% 29.75 in 10.0 mi WSW 9.2 mph - 0.00 in Rain Light Rain
12:53 PM 75.0 °F - 64.9 °F 71% 29.74 in 10.0 mi SSW 10.4 mph - 0.00 in Rain Light Rain
1:00 PM 75.2 °F - 66.2 °F 73% 29.73 in 10.0 mi SW 9.2 mph - 0.00 in   Overcast
1:53 PM 78.1 °F - 64.9 °F 64% 29.71 in 10.0 mi SW 13.8 mph - 0.00 in   Overcast
2:53 PM 80.1 °F 81.9 °F 64.9 °F 60% 29.71 in 10.0 mi West 9.2 mph - N/A   Overcast
3:53 PM 80.1 °F 81.7 °F 64.0 °F 58% 29.71 in 10.0 mi WSW 6.9 mph - N/A   Mostly Cloudy
4:53 PM 82.9 °F 84.6 °F 64.9 °F 54% 29.71 in 10.0 mi WNW 4.6 mph - N/A   Scattered Clouds
5:53 PM 82.9 °F 84.4 °F 64.0 °F 53% 29.70 in 10.0 mi West 5.8 mph - N/A   Scattered Clouds
6:53 PM 78.1 °F - 66.9 °F 68% 29.70 in 10.0 mi East 8.1 mph - N/A   Scattered Clouds
7:53 PM 75.9 °F - 66.9 °F 74% 29.73 in 10.0 mi ESE 10.4 mph - N/A   Scattered Clouds
8:53 PM 75.0 °F - 66.9 °F 76% 29.74 in 10.0 mi ESE 8.1 mph - N/A   Clear
9:53 PM 75.0 °F - 66.9 °F 76% 29.77 in 10.0 mi South 4.6 mph - N/A   Partly Cloudy
10:53 PM 73.9 °F - 68.0 °F 82% 29.79 in 10.0 mi SSW 3.5 mph - N/A   Overcast
11:36 PM 73.4 °F - 66.2 °F 78% 29.80 in 10.0 mi SSW 5.8 mph - N/A   Mostly Cloudy
11:53 PM 73.9 °F - 66.9 °F 79% 29.80 in 10.0 mi SW 4.6 mph - N/A   Mostly Cloudy